| time (UTC) | temp F | wind direction | speed MPH | gust MPH | rain 1hr in | rain 24hr in | rain mn in | humidity % | barometer mb |
| 20260504202718 | 67 | 197 | 2.0 | 2.0 | 0.00 | 0.00 | 0.00 | 40 | 1007.6 |
| 20260504202215 | 68 | 259 | 3.0 | 3.0 | 0.00 | 0.00 | 0.00 | 40 | 1008.0 |
| 20260504201712 | 69 | 349 | 1.0 | 1.0 | 0.00 | 0.00 | 0.00 | 40 | 1007.8 |
| 20260504201210 | 71 | 135 | 3.0 | 5.0 | 0.00 | 0.00 | 0.00 | 36 | 1007.7 |
| 20260504200707 | 71 | 73 | 5.0 | 7.0 | 0.00 | 0.00 | 0.00 | 35 | 1007.9 |
| 20260504200203 | 69 | 260 | 2.0 | 2.0 | 0.00 | 0.00 | 0.00 | 40 | 1007.7 |
| 20260504195659 | 69 | 8 | 3.0 | 5.0 | 0.00 | 0.00 | 0.00 | 36 | 1007.8 |
| 20260504195155 | 70 | 225 | 3.0 | 5.0 | 0.00 | 0.00 | 0.00 | 35 | 1007.9 |
| 20260504194653 | 72 | 267 | 1.0 | 2.0 | 0.00 | 0.00 | 0.00 | 37 | 1007.6 |
| 20260504194148 | 71 | 348 | 2.0 | 3.0 | 0.00 | 0.00 | 0.00 | 38 | 1007.9 |
| 20260504193645 | 70 | 312 | 2.0 | 2.0 | 0.00 | 0.00 | 0.00 | 38 | 1007.8 |
| 20260504193143 | 71 | 359 | 2.0 | 3.0 | 0.00 | 0.00 | 0.00 | 35 | 1007.8 |
| 20260504192641 | 70 | 195 | 5.0 | 7.0 | 0.00 | 0.00 | 0.00 | 36 | 1008.0 |
| 20260504192139 | 69 | 161 | 1.0 | 2.0 | 0.00 | 0.00 | 0.00 | 36 | 1007.8 |
| 20260504191637 | 71 | 301 | 3.0 | 3.0 | 0.00 | 0.00 | 0.00 | 35 | 1007.7 |
| 20260504191133 | 69 | 334 | 2.0 | 3.0 | 0.00 | 0.00 | 0.00 | 37 | 1007.8 |
| 20260504190629 | 70 | 303 | 3.0 | 3.0 | 0.00 | 0.00 | 0.00 | 36 | 1007.9 |
| 20260504190126 | 70 | 94 | 2.0 | 3.0 | 0.00 | 0.00 | 0.00 | 40 | 1007.9 |
| 20260504185622 | 70 | 261 | 2.0 | 2.0 | 0.00 | 0.00 | 0.00 | 37 | 1007.9 |
| 20260504185119 | 69 | 207 | 3.0 | 5.0 | 0.00 | 0.00 | 0.00 | 37 | 1008.0 |
| 20260504184615 | 70 | 196 | 5.0 | 8.0 | 0.00 | 0.00 | 0.00 | 36 | 1008.4 |
| 20260504184110 | 69 | 224 | 5.0 | 7.0 | 0.00 | 0.00 | 0.00 | 40 | 1008.2 |
| 20260504183607 | 69 | 138 | 3.0 | 5.0 | 0.00 | 0.00 | 0.00 | 39 | 1008.3 |
| 20260504183105 | 69 | 237 | 5.0 | 8.0 | 0.00 | 0.00 | 0.00 | 36 | 1008.5 |
| 20260504182602 | 69 | 244 | 2.0 | 3.0 | 0.00 | 0.00 | 0.00 | 35 | 1008.4 |
| 20260504182100 | 70 | 142 | 0.0 | 1.0 | 0.00 | 0.00 | 0.00 | 34 | 1008.5 |
| 20260504181556 | 69 | 18 | 1.0 | 1.0 | 0.00 | 0.00 | 0.00 | 39 | 1008.3 |
| 20260504181054 | 69 | 43 | 4.0 | 5.0 | 0.00 | 0.00 | 0.00 | 34 | 1008.6 |
| 20260504180553 | 68 | 159 | 3.0 | 5.0 | 0.00 | 0.00 | 0.00 | 36 | 1008.6 |
| 20260504180052 | 69 | 230 | 7.0 | 11.0 | 0.00 | 0.00 | 0.00 | 35 | 1008.6 |
| 20260504175548 | 68 | 343 | 3.0 | 3.0 | 0.00 | 0.00 | 0.00 | 35 | 1008.8 |
| 20260504175045 | 68 | 250 | 2.0 | 3.0 | 0.00 | 0.00 | 0.00 | 37 | 1008.8 |
| 20260504174543 | 68 | 270 | 2.0 | 3.0 | 0.00 | 0.00 | 0.00 | 35 | 1008.6 |
| 20260504174040 | 67 | 227 | 3.0 | 5.0 | 0.00 | 0.00 | 0.00 | 36 | 1008.9 |
| 20260504173536 | 68 | 199 | 3.0 | 6.0 | 0.00 | 0.00 | 0.00 | 39 | 1009.0 |
| 20260504173034 | 68 | 257 | 2.0 | 3.0 | 0.00 | 0.00 | 0.00 | 37 | 1008.8 |
| 20260504172530 | 68 | 124 | 2.0 | 2.0 | 0.00 | 0.00 | 0.00 | 38 | 1009.0 |
| 20260504172027 | 69 | 339 | 4.0 | 5.0 | 0.00 | 0.00 | 0.00 | 34 | 1008.9 |
| 20260504171524 | 68 | 30 | 2.0 | 2.0 | 0.00 | 0.00 | 0.00 | 37 | 1008.8 |
| 20260504171021 | 67 | 193 | 3.0 | 3.0 | 0.00 | 0.00 | 0.00 | 34 | 1008.8 |
| 20260504170516 | 68 | 143 | 3.0 | 7.0 | 0.00 | 0.00 | 0.00 | 34 | 1008.9 |
| 20260504160437 | 65 | 170 | 6.0 | 8.0 | 0.00 | 0.00 | 0.00 | 35 | 1009.5 |
| 20260504150900 | 64 | 341 | 7.0 | 9.0 | 0.00 | 0.00 | 0.00 | 40 | 1010.3 |
| 20260504150358 | 64 | 220 | 7.0 | 10.0 | 0.00 | 0.00 | 0.00 | 41 | 1010.4 |
| 20260504141327 | 62 | 318 | 3.0 | 5.0 | 0.00 | 0.00 | 0.00 | 45 | 1010.2 |
| 20260504140824 | 62 | 257 | 4.0 | 9.0 | 0.00 | 0.00 | 0.00 | 44 | 1010.6 |
| 20260504140319 | 62 | 13 | 2.0 | 2.0 | 0.00 | 0.00 | 0.00 | 46 | 1010.5 |
| 20260504130748 | 59 | 23 | 1.0 | 1.0 | 0.00 | 0.00 | 0.00 | 51 | 1010.9 |
| 20260504130244 | 59 | 9 | 1.0 | 2.0 | 0.00 | 0.00 | 0.00 | 50 | 1010.7 |
| 20260504120208 | 52 | 275 | 1.0 | 1.0 | 0.00 | 0.00 | 0.00 | 66 | 1011.4 |
| 20260504110635 | 34 | 21 | 0.0 | 0.0 | 0.00 | 0.00 | 0.00 | 97 | 1011.3 |
| 20260504110131 | 33 | 99 | 0.0 | 0.0 | 0.00 | 0.00 | 0.00 | 97 | 1011.1 |
| 20260504100557 | 30 | 216 | 0.0 | 0.0 | 0.00 | 0.00 | 0.00 | 96 | 1011.1 |
| 20260504081951 | 33 | 216 | 0.0 | 0.0 | 0.00 | 0.00 | 0.00 | 93 | 1010.3 |
| 20260504081448 | 33 | 216 | 0.0 | 0.0 | 0.00 | 0.00 | 0.00 | 93 | 1010.2 |
| 20260504080943 | 33 | 216 | 0.0 | 0.0 | 0.00 | 0.00 | 0.00 | 93 | 1010.5 |
| 20260504080441 | 34 | 216 | 0.0 | 0.0 | 0.00 | 0.00 | 0.00 | 93 | 1010.2 |
| 20260504070408 | 35 | 216 | 0.0 | 0.0 | 0.00 | 0.00 | 0.00 | 92 | 1010.4 |
| 20260504050253 | 31 | 216 | 0.0 | 0.0 | 0.00 | 0.00 | 0.00 | 92 | 1010.5 |
| 20260504045750 | 31 | 216 | 0.0 | 0.0 | 0.00 | 0.00 | 0.00 | 92 | 1010.8 |
| 20260504045245 | 31 | 216 | 0.0 | 0.0 | 0.00 | 0.00 | 0.00 | 92 | 1010.6 |
| 20260504044743 | 31 | 216 | 0.0 | 0.0 | 0.00 | 0.00 | 0.00 | 92 | 1010.8 |
| 20260504044240 | 31 | 216 | 0.0 | 0.0 | 0.00 | 0.00 | 0.00 | 92 | 1010.9 |
| 20260504043737 | 31 | 216 | 0.0 | 0.0 | 0.00 | 0.00 | 0.00 | 92 | 1010.7 |
| 20260504043233 | 31 | 216 | 0.0 | 0.0 | 0.00 | 0.00 | 0.00 | 92 | 1010.6 |
| 20260504042732 | 31 | 216 | 0.0 | 0.0 | 0.00 | 0.00 | 0.00 | 92 | 1010.7 |
| 20260504042227 | 30 | 216 | 0.0 | 0.0 | 0.00 | 0.00 | 0.00 | 91 | 1010.7 |
| 20260504041723 | 31 | 216 | 0.0 | 0.0 | 0.00 | 0.00 | 0.00 | 91 | 1010.8 |
| 20260504041219 | 31 | 216 | 0.0 | 0.0 | 0.00 | 0.00 | 0.00 | 91 | 1010.6 |
| 20260504040711 | 31 | 216 | 0.0 | 0.0 | 0.00 | 0.00 | 0.00 | 91 | 1010.6 |
| 20260504040208 | 32 | 216 | 0.0 | 0.0 | 0.00 | 0.00 | 0.00 | 91 | 1010.3 |
| 20260504035704 | 32 | 216 | 0.0 | 0.0 | 0.00 | 0.00 | 0.00 | 91 | 1010.3 |
| 20260504035202 | 31 | 216 | 0.0 | 0.0 | 0.00 | 0.00 | 0.00 | 90 | 1010.6 |
| 20260504034659 | 31 | 216 | 0.0 | 0.0 | 0.00 | 0.00 | 0.00 | 90 | 1010.5 |
| 20260504034156 | 31 | 216 | 0.0 | 0.0 | 0.00 | 0.00 | 0.00 | 90 | 1010.4 |
| 20260504033654 | 32 | 216 | 0.0 | 0.0 | 0.00 | 0.00 | 0.00 | 90 | 1010.3 |
| 20260504033151 | 32 | 216 | 0.0 | 0.0 | 0.00 | 0.00 | 0.00 | 90 | 1010.5 |
| 20260504032647 | 32 | 216 | 0.0 | 0.0 | 0.00 | 0.00 | 0.00 | 89 | 1010.5 |
| 20260504032144 | 32 | 216 | 0.0 | 0.0 | 0.00 | 0.00 | 0.00 | 89 | 1010.2 |
| 20260504031641 | 32 | 216 | 0.0 | 0.0 | 0.00 | 0.00 | 0.00 | 88 | 1010.2 |
| 20260504031137 | 32 | 216 | 0.0 | 0.0 | 0.00 | 0.00 | 0.00 | 88 | 1010.4 |
| 20260504030634 | 32 | 216 | 0.0 | 0.0 | 0.00 | 0.00 | 0.00 | 88 | 1010.3 |
| 20260504030131 | 32 | 217 | 0.0 | 0.0 | 0.00 | 0.00 | 0.00 | 88 | 1010.4 |
| 20260504025627 | 32 | 215 | 0.0 | 0.0 | 0.00 | 0.00 | 0.00 | 87 | 1010.1 |
| 20260504025124 | 32 | 215 | 0.0 | 0.0 | 0.00 | 0.00 | 0.00 | 87 | 1010.2 |
| 20260504024622 | 33 | 215 | 0.0 | 0.0 | 0.00 | 0.00 | 0.00 | 87 | 1010.2 |
| 20260504024118 | 33 | 215 | 0.0 | 0.0 | 0.00 | 0.00 | 0.00 | 87 | 1010.2 |
| 20260504023615 | 33 | 215 | 0.0 | 0.0 | 0.00 | 0.00 | 0.00 | 86 | 1010.0 |
| 20260504023110 | 33 | 216 | 0.0 | 0.0 | 0.00 | 0.00 | 0.00 | 86 | 1010.3 |
| 20260504022607 | 33 | 214 | 0.0 | 0.0 | 0.00 | 0.00 | 0.00 | 86 | 1010.1 |
| 20260504022103 | 33 | 214 | 0.0 | 0.0 | 0.00 | 0.00 | 0.00 | 85 | 1009.7 |
| 20260504021602 | 33 | 214 | 0.0 | 0.0 | 0.00 | 0.00 | 0.00 | 85 | 1009.8 |
| 20260504021058 | 33 | 214 | 0.0 | 0.0 | 0.00 | 0.00 | 0.00 | 84 | 1010.1 |
| 20260504020555 | 34 | 214 | 0.0 | 0.0 | 0.00 | 0.00 | 0.00 | 84 | 1009.8 |
| 20260504020051 | 34 | 214 | 0.0 | 0.0 | 0.00 | 0.00 | 0.00 | 84 | 1010.0 |
| 20260504015547 | 34 | 214 | 0.0 | 0.0 | 0.00 | 0.00 | 0.00 | 83 | 1009.8 |
| 20260504015043 | 34 | 214 | 0.0 | 0.0 | 0.00 | 0.00 | 0.00 | 82 | 1009.8 |
| 20260504014540 | 34 | 214 | 0.0 | 0.0 | 0.00 | 0.00 | 0.00 | 82 | 1009.7 |
| 20260504014037 | 35 | 214 | 0.0 | 0.0 | 0.00 | 0.00 | 0.00 | 81 | 1009.6 |
| 20260504013535 | 35 | 214 | 0.0 | 0.0 | 0.00 | 0.00 | 0.00 | 81 | 1009.6 |
| 20260504013032 | 35 | 214 | 0.0 | 0.0 | 0.00 | 0.00 | 0.00 | 80 | 1009.6 |
| 20260504012529 | 35 | 214 | 0.0 | 0.0 | 0.00 | 0.00 | 0.00 | 80 | 1009.6 |
| 20260504012022 | 35 | 214 | 0.0 | 0.0 | 0.00 | 0.00 | 0.00 | 79 | 1009.7 |
| 20260504011518 | 35 | 214 | 0.0 | 0.0 | 0.00 | 0.00 | 0.00 | 80 | 1009.5 |
| 20260504011014 | 36 | 214 | 0.0 | 0.0 | 0.00 | 0.00 | 0.00 | 77 | 1009.5 |
| 20260504010510 | 36 | 214 | 0.0 | 0.0 | 0.00 | 0.00 | 0.00 | 77 | 1009.3 |
| 20260504010006 | 37 | 214 | 0.0 | 0.0 | 0.00 | 0.00 | 0.00 | 77 | 1009.3 |
| 20260504005503 | 37 | 216 | 0.0 | 0.0 | 0.00 | 0.00 | 0.00 | 76 | 1009.3 |
| 20260504005001 | 37 | 216 | 0.0 | 0.0 | 0.00 | 0.00 | 0.00 | 74 | 1009.2 |
| 20260504004458 | 37 | 216 | 0.0 | 0.0 | 0.00 | 0.00 | 0.00 | 72 | 1009.0 |
| 20260504003955 | 38 | 216 | 0.0 | 0.0 | 0.00 | 0.00 | 0.00 | 71 | 1008.9 |
| 20260504003451 | 38 | 216 | 0.0 | 0.0 | 0.00 | 0.00 | 0.00 | 70 | 1009.1 |
| 20260504002948 | 39 | 216 | 0.0 | 0.0 | 0.00 | 0.00 | 0.00 | 69 | 1008.8 |
| 20260504002445 | 40 | 216 | 0.0 | 0.0 | 0.00 | 0.00 | 0.00 | 68 | 1008.9 |
| 20260504001942 | 40 | 216 | 0.0 | 0.0 | 0.00 | 0.00 | 0.00 | 66 | 1008.7 |
| 20260504001439 | 41 | 216 | 0.0 | 0.0 | 0.00 | 0.00 | 0.00 | 65 | 1008.8 |
| 20260504000936 | 42 | 216 | 0.0 | 0.0 | 0.00 | 0.00 | 0.00 | 61 | 1008.7 |
| 20260504000433 | 43 | 216 | 0.0 | 0.0 | 0.00 | 0.00 | 0.00 | 61 | 1008.4 |
| 20260503235930 | 45 | 203 | 0.0 | 0.0 | 0.00 | 0.00 | 0.00 | 59 | 1008.5 |
| 20260503235428 | 45 | 251 | 0.0 | 0.0 | 0.00 | 0.00 | 0.00 | 53 | 1008.3 |
| 20260503234925 | 46 | 252 | 0.0 | 0.0 | 0.00 | 0.00 | 0.00 | 51 | 1008.5 |
| 20260503234423 | 47 | 252 | 0.0 | 0.0 | 0.00 | 0.00 | 0.00 | 50 | 1008.3 |
| 20260503233921 | 47 | 266 | 0.0 | 0.0 | 0.00 | 0.00 | 0.00 | 49 | 1008.6 |
| 20260503233417 | 47 | 230 | 0.0 | 1.0 | 0.00 | 0.00 | 0.00 | 50 | 1008.5 |
| 20260503232913 | 48 | 290 | 0.0 | 0.0 | 0.00 | 0.00 | 0.00 | 48 | 1008.3 |
| 20260503232411 | 48 | 285 | 0.0 | 0.0 | 0.00 | 0.00 | 0.00 | 49 | 1008.4 |
| 20260503231908 | 49 | 280 | 0.0 | 0.0 | 0.00 | 0.00 | 0.00 | 46 | 1008.2 |
| 20260503231405 | 49 | 296 | 1.0 | 2.0 | 0.00 | 0.00 | 0.00 | 48 | 1008.1 |
| 20260503230902 | 49 | 334 | 1.0 | 2.0 | 0.00 | 0.00 | 0.00 | 47 | 1008.2 |
| 20260503230358 | 49 | 294 | 1.0 | 1.0 | 0.00 | 0.00 | 0.00 | 47 | 1008.2 |
| 20260503225856 | 49 | 201 | 1.0 | 1.0 | 0.00 | 0.00 | 0.00 | 46 | 1008.2 |
| 20260503225352 | 49 | 55 | 1.0 | 2.0 | 0.00 | 0.00 | 0.00 | 49 | 1008.3 |
| 20260503224848 | 49 | 342 | 2.0 | 2.0 | 0.00 | 0.00 | 0.00 | 45 | 1007.9 |
| 20260503224345 | 50 | 198 | 4.0 | 8.0 | 0.00 | 0.00 | 0.00 | 47 | 1008.0 |
| 20260503223843 | 50 | 8 | 3.0 | 3.0 | 0.00 | 0.00 | 0.00 | 45 | 1008.0 |
| 20260503223341 | 50 | 336 | 2.0 | 2.0 | 0.00 | 0.00 | 0.00 | 44 | 1007.9 |
| 20260503222836 | 50 | 242 | 1.0 | 2.0 | 0.00 | 0.00 | 0.00 | 45 | 1008.0 |
| 20260503222335 | 50 | 301 | 2.0 | 2.0 | 0.00 | 0.00 | 0.00 | 44 | 1008.2 |
| 20260503221832 | 50 | 33 | 3.0 | 5.0 | 0.00 | 0.00 | 0.00 | 45 | 1008.1 |
| 20260503221331 | 50 | 54 | 3.0 | 6.0 | 0.00 | 0.00 | 0.00 | 46 | 1008.0 |
| 20260503220826 | 50 | 217 | 0.0 | 1.0 | 0.00 | 0.00 | 0.00 | 46 | 1008.0 |
| 20260503220324 | 50 | 7 | 4.0 | 6.0 | 0.00 | 0.00 | 0.00 | 46 | 1008.0 |
| 20260503215820 | 51 | 313 | 1.0 | 2.0 | 0.00 | 0.00 | 0.00 | 45 | 1008.1 |
| 20260503215318 | 52 | 20 | 5.0 | 8.0 | 0.00 | 0.00 | 0.00 | 43 | 1007.8 |
| 20260503214816 | 52 | 0 | 1.0 | 1.0 | 0.00 | 0.00 | 0.00 | 45 | 1007.9 |
| 20260503214313 | 52 | 21 | 2.0 | 2.0 | 0.00 | 0.00 | 0.00 | 44 | 1007.7 |
| 20260503213810 | 52 | 155 | 0.0 | 0.0 | 0.00 | 0.00 | 0.00 | 48 | 1007.6 |
| 20260503213307 | 53 | 140 | 4.0 | 6.0 | 0.00 | 0.00 | 0.00 | 44 | 1007.4 |
| 20260503212804 | 52 | 21 | 1.0 | 2.0 | 0.00 | 0.00 | 0.00 | 48 | 1007.5 |
| 20260503212304 | 50 | 151 | 4.0 | 6.0 | 0.00 | 0.00 | 0.00 | 45 | 1007.6 |
| 20260503211759 | 51 | 344 | 4.0 | 5.0 | 0.00 | 0.00 | 0.00 | 46 | 1007.8 |
| 20260503211255 | 52 | 346 | 3.0 | 3.0 | 0.00 | 0.00 | 0.00 | 46 | 1007.6 |
| 20260503210755 | 52 | 349 | 3.0 | 3.0 | 0.00 | 0.00 | 0.00 | 44 | 1007.2 |
| 20260503210253 | 51 | 48 | 2.0 | 3.0 | 0.00 | 0.00 | 0.00 | 45 | 1007.4 |
| 20260503205748 | 51 | 2 | 2.0 | 3.0 | 0.00 | 0.00 | 0.00 | 45 | 1007.3 |
| 20260503205245 | 51 | 8 | 2.0 | 3.0 | 0.00 | 0.00 | 0.00 | 46 | 1007.2 |
| 20260503204741 | 50 | 321 | 2.0 | 3.0 | 0.00 | 0.00 | 0.00 | 47 | 1007.3 |
| 20260503204239 | 50 | 350 | 1.0 | 2.0 | 0.00 | 0.00 | 0.00 | 48 | 1007.2 |
| 20260503203737 | 51 | 359 | 5.0 | 6.0 | 0.00 | 0.00 | 0.00 | 45 | 1007.3 |
| 20260503203234 | 51 | 294 | 4.0 | 5.0 | 0.00 | 0.00 | 0.00 | 45 | 1007.1 |